Location: Miles
(41.4492°N, 81.6087°W)
Time: 23:22:13
(UTC+00:00)

Courier 1B Rocket - Pass Details

Date: 19 September 2024
Orbit: 920 x 1201 km, 28.2° (Epoch: 09 October)

Event Time Altitude Azimuth Distance (km) Brightness Sun altitude
Rises 23:57:56 0° 256° (WSW) 3,753 9.6 -6.1°
Reaches altitude 10° 00:01:24 10° 239° (WSW) 2,854 8.3 -6.8°
Maximum altitude 00:06:04 19° 196° (SSW) 2,319 7.1 -7.6°
Drops below altitude 10° 00:10:57 10° 154° (SSE) 2,990 7.2 -8.6°
Enters shadow 00:14:19 - 139° (SE) 3,882 7.7 -9.2°
Sets 00:14:43 0° 138° (SE) 3,996 - -9.2°
